Find Starlink 11572

NORAD ID: 62990 Int'l Des: 2025-031 Owner: SPXS Country: US Constellation: starlink operational
LEOCIRCULAR

現在のビュー

3D地球を読み込み中...

About Starlink 11572

Starlink 11572 (NORAD 62990) is a starlink constellation satellite (v2 mini d2c) launched Feb 11, 2025 by SPXS of US. It operates in LEO, CIRCULAR orbit with a mass of 960.00 kg.

Starlink 11572について

説明を読み込み中...

次回通過

Passes for default location (London). Set your location on the main map for personalized predictions.

高度履歴

Loading altitude history...

軌道要素

1 62990U 25031K 26170.54493570 .00163254 00000-0 12482-2 0 9990
2 62990 43.0013 107.3256 0000771 293.7393 66.3393 15.70891452 78764
Epoch: Jun 19, 2026 • Age: 45 hours

現在のステータス

高度 358.1 km
速度 7.70 km/s
衛星直下点 43.09°N, 134.91°E
打ち上げ日 Feb 11, 2025
運用期間 1.3 years
タイプ internet

技術仕様

分類 Payload
質量 960.00 kg
乾燥質量 910.00 kg
総質量 960.00 kg
長さ 0.30 m
直径 4.10 m
スパン 29.00 m
形状 Box + pan
製造者 SPXS
バスタイプ Starlink V2MD
フェーズステータス In Orbit
所有者/国 SPXS/US

Most Searched